User: anonymous   Login
Location: Unspecified
(0.0000°N, 0.0000°E)
Time: 08:48:39
(UTC+00:00)
Language:

MetOp-B - Orbit

View from above orbital plane
View from above orbital plane
View from above satellite
View from above satellite

Ground track
Ground track

The orbit data is extracted from the following two-line orbital elements,

1 38771U 12049A   19288.20036100  .00000007  00000-0  23081-4 0  9997
2 38771  98.6902 345.7994 0001071  41.4669  27.1996 14.21498548367031
Epoch (UTC): 15 October 2019 04:48:31
Eccentricity: 0.0001071
inclination: 98.6902°
perigee height: 819 km
apogee height: 821 km
right ascension of ascending node: 345.7994°
argument of perigee: 41.4669°
revolutions per day: 14.21498548
mean anomaly at epoch: 27.1996°
orbit number at epoch: 36703

The dashed part of the orbit path shows where the satellite is in the earth's shadow,  

DLR